Time,TemperatureF,DewpointF,PressureIn,WindDirection,WindDirectionDegrees,WindSpeedMPH,WindSpeedGustMPH,Humidity,HourlyPrecipIn,Conditions,Clouds,dailyrainin,SoftwareType,DateUTC
2013-06-14 00:00:00,82.0,69.5,29.89,SSE,159,0.0,0.0,66,0.00,,,0.00,Wunderground v.1.15,2013-06-14 05:00:00,
2013-06-14 00:10:00,81.4,69.4,29.89,SSE,159,0.0,0.0,67,0.00,,,0.00,Wunderground v.1.15,2013-06-14 05:10:00,
2013-06-14 00:15:00,81.1,69.5,29.89,SSE,159,0.0,0.0,68,0.00,,,0.00,Wunderground v.1.15,2013-06-14 05:15:00,
2013-06-14 00:25:00,80.6,69.5,29.89,SSE,159,0.0,0.0,69,0.00,,,0.00,Wunderground v.1.15,2013-06-14 05:25:00,
2013-06-14 00:30:00,80.4,69.3,29.89,SSE,159,0.0,0.0,69,0.00,,,0.00,Wunderground v.1.15,2013-06-14 05:30:00,
2013-06-14 00:35:00,80.1,69.4,29.89,SSE,159,0.0,0.0,70,0.00,,,0.00,Wunderground v.1.15,2013-06-14 05:35:00,
2013-06-14 00:40:00,79.9,69.7,29.90,SSE,159,0.0,0.0,71,0.00,,,0.00,Wunderground v.1.15,2013-06-14 05:40:00,
2013-06-14 00:50:00,79.6,69.8,29.90,SSE,159,1.0,1.0,72,0.00,,,0.00,Wunderground v.1.15,2013-06-14 05:50:00,
2013-06-14 00:55:00,79.6,69.8,29.90,SSE,159,1.0,1.0,72,0.00,,,0.00,Wunderground v.1.15,2013-06-14 05:55:00,
2013-06-14 01:00:00,79.7,69.9,29.90,SSE,159,0.0,0.0,72,0.00,,,0.00,Wunderground v.1.15,2013-06-14 06:00:00,
2013-06-14 01:10:00,79.8,70.0,29.90,SSE,159,0.0,0.0,72,0.00,,,0.00,Wunderground v.1.15,2013-06-14 06:10:00,
2013-06-14 01:15:00,79.8,70.0,29.90,SSE,159,0.0,0.0,72,0.00,,,0.00,Wunderground v.1.15,2013-06-14 06:15:00,
2013-06-14 01:20:00,79.8,70.0,29.90,SSE,159,0.0,0.0,72,0.00,,,0.00,Wunderground v.1.15,2013-06-14 06:20:00,
2013-06-14 01:25:00,79.7,69.9,29.90,SSE,159,0.0,0.0,72,0.00,,,0.00,Wunderground v.1.15,2013-06-14 06:25:00,
2013-06-14 01:35:00,79.7,69.9,29.90,SSE,159,0.0,0.0,72,0.00,,,0.00,Wunderground v.1.15,2013-06-14 06:35:00,
2013-06-14 01:40:00,79.6,69.8,29.90,SSE,159,0.0,0.0,72,0.00,,,0.00,Wunderground v.1.15,2013-06-14 06:40:00,
2013-06-14 01:45:00,79.6,69.8,29.90,SSE,159,0.0,0.0,72,0.00,,,0.00,Wunderground v.1.15,2013-06-14 06:45:00,
2013-06-14 01:50:00,79.5,69.7,29.90,SSE,159,0.0,0.0,72,0.00,,,0.00,Wunderground v.1.15,2013-06-14 06:50:00,
2013-06-14 01:55:00,79.3,69.5,29.90,SSE,159,0.0,0.0,72,0.00,,,0.00,Wunderground v.1.15,2013-06-14 06:55:00,
2013-06-14 02:00:00,79.2,69.8,29.90,SSE,159,0.0,0.0,73,0.00,,,0.00,Wunderground v.1.15,2013-06-14 07:00:00,
2013-06-14 02:10:00,78.7,69.7,29.90,SSE,159,0.0,0.0,74,0.00,,,0.00,Wunderground v.1.15,2013-06-14 07:10:00,
2013-06-14 02:20:00,78.2,69.2,29.89,SSE,159,0.0,0.0,74,0.00,,,0.00,Wunderground v.1.15,2013-06-14 07:20:00,
2013-06-14 02:25:00,77.9,69.3,29.89,SSE,159,0.0,0.0,75,0.00,,,0.00,Wunderground v.1.15,2013-06-14 07:25:00,
2013-06-14 02:30:00,77.6,69.0,29.89,SSE,159,0.0,0.0,75,0.00,,,0.00,Wunderground v.1.15,2013-06-14 07:30:00,
2013-06-14 02:35:00,77.3,69.1,29.89,SSE,159,0.0,0.0,76,0.00,,,0.00,Wunderground v.1.15,2013-06-14 07:35:00,
2013-06-14 02:40:00,77.0,69.2,29.89,SSE,159,0.0,0.0,77,0.00,,,0.00,Wunderground v.1.15,2013-06-14 07:40:00,
2013-06-14 02:50:00,76.6,69.2,29.89,SSE,159,0.0,0.0,78,0.00,,,0.00,Wunderground v.1.15,2013-06-14 07:50:00,
2013-06-14 02:55:00,76.4,69.0,29.89,SSE,159,0.0,0.0,78,0.00,,,0.00,Wunderground v.1.15,2013-06-14 07:55:00,
2013-06-14 03:00:00,76.2,69.2,29.89,SSE,159,0.0,0.0,79,0.00,,,0.00,Wunderground v.1.15,2013-06-14 08:00:00,
2013-06-14 03:10:00,75.8,69.2,29.89,SSE,159,0.0,0.0,80,0.00,,,0.00,Wunderground v.1.15,2013-06-14 08:10:00,
2013-06-14 03:15:00,75.5,68.9,29.89,SSE,159,0.0,0.0,80,0.00,,,0.00,Wunderground v.1.15,2013-06-14 08:15:00,
2013-06-14 03:20:00,75.4,69.2,29.89,SSE,159,0.0,0.0,81,0.00,,,0.00,Wunderground v.1.15,2013-06-14 08:20:00,
2013-06-14 03:30:00,75.0,69.1,29.89,SSE,159,0.0,0.0,82,0.00,,,0.00,Wunderground v.1.15,2013-06-14 08:30:00,
2013-06-14 03:35:00,74.9,69.0,29.89,SSE,159,0.0,0.0,82,0.00,,,0.00,Wunderground v.1.15,2013-06-14 08:35:00,
2013-06-14 03:40:00,74.8,69.3,29.89,SSE,159,0.0,0.0,83,0.00,,,0.00,Wunderground v.1.15,2013-06-14 08:40:00,
2013-06-14 03:45:00,74.6,69.1,29.89,SSE,159,0.0,0.0,83,0.00,,,0.00,Wunderground v.1.15,2013-06-14 08:45:00,
2013-06-14 03:50:00,74.5,69.0,29.89,SSE,159,0.0,0.0,83,0.00,,,0.00,Wunderground v.1.15,2013-06-14 08:50:00,
2013-06-14 04:00:00,74.3,68.8,29.89,SSE,159,0.0,0.0,83,0.00,,,0.00,Wunderground v.1.15,2013-06-14 09:00:00,
2013-06-14 04:10:00,74.1,69.0,29.89,SSE,159,0.0,0.0,84,0.00,,,0.00,Wunderground v.1.15,2013-06-14 09:10:00,
2013-06-14 04:20:00,73.9,68.8,29.89,SSE,159,0.0,0.0,84,0.00,,,0.00,Wunderground v.1.15,2013-06-14 09:20:00,
2013-06-14 04:25:00,73.8,68.7,29.89,SSE,159,0.0,0.0,84,0.00,,,0.00,Wunderground v.1.15,2013-06-14 09:25:00,
2013-06-14 04:30:00,73.7,68.9,29.89,SSE,159,0.0,0.0,85,0.00,,,0.00,Wunderground v.1.15,2013-06-14 09:30:00,
2013-06-14 04:35:00,73.5,68.7,29.90,SSE,159,0.0,0.0,85,0.00,,,0.00,Wunderground v.1.15,2013-06-14 09:35:00,
2013-06-14 04:45:00,73.3,68.5,29.90,SSE,159,0.0,0.0,85,0.00,,,0.00,Wunderground v.1.15,2013-06-14 09:45:00,
2013-06-14 04:50:00,73.1,68.3,29.90,SSE,159,0.0,0.0,85,0.00,,,0.00,Wunderground v.1.15,2013-06-14 09:50:00,
2013-06-14 04:55:00,73.0,68.2,29.90,SSE,159,0.0,0.0,85,0.00,,,0.00,Wunderground v.1.15,2013-06-14 09:55:00,
2013-06-14 05:00:00,73.0,68.2,29.89,SSE,159,0.0,0.0,85,0.00,,,0.00,Wunderground v.1.15,2013-06-14 10:00:00,
2013-06-14 05:10:00,72.8,68.0,29.89,SSE,159,0.0,0.0,85,0.00,,,0.00,Wunderground v.1.15,2013-06-14 10:10:00,
2013-06-14 05:15:00,72.7,67.9,29.89,SSE,159,0.0,0.0,85,0.00,,,0.00,Wunderground v.1.15,2013-06-14 10:15:00,
2013-06-14 05:20:00,72.6,67.8,29.90,SSE,159,0.0,0.0,85,0.00,,,0.00,Wunderground v.1.15,2013-06-14 10:20:00,
2013-06-14 05:30:00,72.4,68.0,29.90,SSE,159,0.0,0.0,86,0.00,,,0.00,Wunderground v.1.15,2013-06-14 10:30:00,
2013-06-14 05:35:00,72.4,68.0,29.90,SSE,159,0.0,0.0,86,0.00,,,0.00,Wunderground v.1.15,2013-06-14 10:35:00,
2013-06-14 05:40:00,72.3,67.9,29.90,SSE,159,0.0,0.0,86,0.00,,,0.00,Wunderground v.1.15,2013-06-14 10:40:00,
2013-06-14 05:45:00,72.3,67.9,29.91,SSE,159,0.0,0.0,86,0.00,,,0.00,Wunderground v.1.15,2013-06-14 10:45:00,
2013-06-14 05:55:00,72.2,67.8,29.91,SSE,159,0.0,0.0,86,0.00,,,0.00,Wunderground v.1.15,2013-06-14 10:55:00,
2013-06-14 06:00:00,72.2,68.1,29.91,SSE,159,0.0,0.0,87,0.00,,,0.00,Wunderground v.1.15,2013-06-14 11:00:00,
2013-06-14 06:10:00,72.0,67.9,29.91,SSE,159,0.0,0.0,87,0.00,,,0.00,Wunderground v.1.15,2013-06-14 11:10:00,
2013-06-14 06:15:00,71.9,67.8,29.91,SSE,159,0.0,0.0,87,0.00,,,0.00,Wunderground v.1.15,2013-06-14 11:15:00,
2013-06-14 06:20:00,71.9,67.8,29.91,SSE,159,0.0,0.0,87,0.00,,,0.00,Wunderground v.1.15,2013-06-14 11:20:00,
2013-06-14 06:25:00,71.8,67.7,29.91,SSE,159,0.0,0.0,87,0.00,,,0.00,Wunderground v.1.15,2013-06-14 11:25:00,
2013-06-14 06:30:00,71.8,68.1,29.91,SSE,159,0.0,0.0,88,0.00,,,0.00,Wunderground v.1.15,2013-06-14 11:30:00,
2013-06-14 06:35:00,71.8,68.1,29.91,SSE,159,0.0,0.0,88,0.00,,,0.00,Wunderground v.1.15,2013-06-14 11:35:00,
2013-06-14 06:45:00,71.8,67.7,29.91,SSE,159,0.0,0.0,87,0.00,,,0.00,Wunderground v.1.15,2013-06-14 11:45:00,
2013-06-14 06:50:00,72.0,67.9,29.92,SW,222,0.0,0.0,87,0.00,,,0.00,Wunderground v.1.15,2013-06-14 11:50:00,
2013-06-14 06:55:00,72.1,68.0,29.92,SW,221,0.0,0.0,87,0.00,,,0.00,Wunderground v.1.15,2013-06-14 11:55:00,
2013-06-14 07:00:00,72.4,68.3,29.92,SW,221,0.0,0.0,87,0.00,,,0.00,Wunderground v.1.15,2013-06-14 12:00:00,
2013-06-14 07:10:00,72.7,68.6,29.92,SW,221,0.0,0.0,87,0.00,,,0.00,Wunderground v.1.15,2013-06-14 12:10:00,
2013-06-14 07:15:00,73.0,68.6,29.92,SW,221,0.0,0.0,86,0.00,,,0.00,Wunderground v.1.15,2013-06-14 12:15:00,
2013-06-14 07:20:00,73.3,68.9,29.92,SW,222,0.0,0.0,86,0.00,,,0.00,Wunderground v.1.15,2013-06-14 12:20:00,
2013-06-14 07:30:00,73.9,69.1,29.92,SW,222,0.0,0.0,85,0.00,,,0.00,Wunderground v.1.15,2013-06-14 12:30:00,
2013-06-14 07:35:00,74.3,69.1,29.92,SW,219,0.0,0.0,84,0.00,,,0.00,Wunderground v.1.15,2013-06-14 12:35:00,
2013-06-14 07:40:00,74.8,68.9,29.92,SW,219,0.0,0.0,82,0.00,,,0.00,Wunderground v.1.15,2013-06-14 12:40:00,
2013-06-14 07:45:00,75.4,69.2,29.93,SW,219,0.0,0.0,81,0.00,,,0.00,Wunderground v.1.15,2013-06-14 12:45:00,
2013-06-14 07:55:00,76.6,68.8,29.93,SW,219,0.0,0.0,77,0.00,,,0.00,Wunderground v.1.15,2013-06-14 12:55:00,
2013-06-14 08:00:00,77.1,68.6,29.93,SW,223,0.0,0.0,75,0.00,,,0.00,Wunderground v.1.15,2013-06-14 13:00:00,
2013-06-14 08:10:00,77.9,68.9,29.93,SSW,194,0.0,0.0,74,0.00,,,0.00,Wunderground v.1.15,2013-06-14 13:10:00,
2013-06-14 08:15:00,78.3,69.3,29.93,SW,223,0.0,0.0,74,0.00,,,0.00,Wunderground v.1.15,2013-06-14 13:15:00,
2013-06-14 08:20:00,79.1,69.3,29.93,SW,223,0.0,0.0,72,0.00,,,0.00,Wunderground v.1.15,2013-06-14 13:20:00,
2013-06-14 08:25:00,80.1,69.8,29.94,SW,223,0.0,0.0,71,0.00,,,0.00,Wunderground v.1.15,2013-06-14 13:25:00,
2013-06-14 08:30:00,81.0,69.9,29.94,SW,223,0.0,0.0,69,0.00,,,0.00,Wunderground v.1.15,2013-06-14 13:30:00,
2013-06-14 08:40:00,82.2,69.7,29.94,SW,235,0.0,0.0,66,0.00,,,0.00,Wunderground v.1.15,2013-06-14 13:40:00,
2013-06-14 08:45:00,82.7,70.2,29.94,WSW,237,0.0,0.0,66,0.00,,,0.00,Wunderground v.1.15,2013-06-14 13:45:00,
2013-06-14 08:50:00,83.1,70.1,29.94,WSW,237,0.0,0.0,65,0.00,,,0.00,Wunderground v.1.15,2013-06-14 13:50:00,
2013-06-14 08:55:00,83.5,70.5,29.94,WSW,238,0.0,0.0,65,0.00,,,0.00,Wunderground v.1.15,2013-06-14 13:55:00,
2013-06-14 09:00:00,84.0,70.5,29.94,WSW,237,0.0,0.0,64,0.00,,,0.00,Wunderground v.1.15,2013-06-14 14:00:00,
2013-06-14 09:10:00,84.8,71.3,29.95,WSW,237,0.0,0.0,64,0.00,,,0.00,Wunderground v.1.15,2013-06-14 14:10:00,
2013-06-14 09:15:00,85.4,71.8,29.95,SSW,211,0.0,0.0,64,0.00,,,0.00,Wunderground v.1.15,2013-06-14 14:15:00,
2013-06-14 09:25:00,86.3,70.8,29.95,SSW,211,0.0,0.0,60,0.00,,,0.00,Wunderground v.1.15,2013-06-14 14:25:00,
2013-06-14 09:30:00,87.0,71.9,29.95,SSW,211,0.0,0.0,61,0.00,,,0.00,Wunderground v.1.15,2013-06-14 14:30:00,
2013-06-14 09:35:00,87.5,71.4,29.95,SSW,211,0.0,0.0,59,0.00,,,0.00,Wunderground v.1.15,2013-06-14 14:35:00,
2013-06-14 09:40:00,87.7,71.1,29.94,SSW,211,0.0,0.0,58,0.00,,,0.00,Wunderground v.1.15,2013-06-14 14:40:00,
2013-06-14 09:45:00,87.9,70.8,29.94,SSW,212,0.0,0.0,57,0.00,,,0.00,Wunderground v.1.15,2013-06-14 14:45:00,
2013-06-14 09:55:00,87.7,71.6,29.94,SW,214,0.0,0.0,59,0.00,,,0.00,Wunderground v.1.15,2013-06-14 14:55:00,
2013-06-14 10:00:00,87.9,71.3,29.94,SW,221,1.0,1.0,58,0.00,,,0.00,Wunderground v.1.15,2013-06-14 15:00:00,
2013-06-14 10:10:00,88.4,71.7,29.94,SSW,211,0.0,0.0,58,0.00,,,0.00,Wunderground v.1.15,2013-06-14 15:10:00,
2013-06-14 10:15:00,89.0,71.8,29.95,SSW,212,0.0,0.0,57,0.00,,,0.00,Wunderground v.1.15,2013-06-14 15:15:00,
2013-06-14 10:20:00,89.2,72.0,29.95,SSW,212,0.0,0.0,57,0.00,,,0.00,Wunderground v.1.15,2013-06-14 15:20:00,
2013-06-14 10:25:00,88.9,72.7,29.95,SSW,212,0.0,0.0,59,0.00,,,0.00,Wunderground v.1.15,2013-06-14 15:25:00,
2013-06-14 10:35:00,89.3,70.5,29.94,ESE,121,0.0,0.0,54,0.00,,,0.00,Wunderground v.1.15,2013-06-14 15:35:00,
2013-06-14 10:40:00,89.6,71.8,29.94,SE,141,0.0,0.0,56,0.00,,,0.00,Wunderground v.1.15,2013-06-14 15:40:00,
2013-06-14 10:45:00,89.6,69.6,29.94,SE,141,0.0,0.0,52,0.00,,,0.00,Wunderground v.1.15,2013-06-14 15:45:00,
2013-06-14 10:50:00,89.9,71.0,29.94,SSE,161,0.0,0.0,54,0.00,,,0.00,Wunderground v.1.15,2013-06-14 15:50:00,
2013-06-14 10:55:00,90.1,70.7,29.94,South,175,1.0,1.0,53,0.00,,,0.00,Wunderground v.1.15,2013-06-14 15:55:00,
2013-06-14 11:00:00,90.2,70.2,29.94,South,175,1.0,1.0,52,0.00,,,0.00,Wunderground v.1.15,2013-06-14 16:00:00,
2013-06-14 11:10:00,90.8,71.3,29.94,SSW,211,0.0,0.0,53,0.00,,,0.00,Wunderground v.1.15,2013-06-14 16:10:00,
2013-06-14 11:20:00,91.1,70.5,29.94,SW,232,1.0,1.0,51,0.00,,,0.00,Wunderground v.1.15,2013-06-14 16:20:00,
2013-06-14 11:25:00,90.9,70.8,29.93,SW,232,1.0,1.0,52,0.00,,,0.00,Wunderground v.1.15,2013-06-14 16:25:00,
2013-06-14 11:30:00,91.3,71.2,29.94,SSW,201,0.0,0.0,52,0.00,,,0.00,Wunderground v.1.15,2013-06-14 16:30:00,
2013-06-14 11:35:00,91.1,69.9,29.93,SSW,201,0.0,0.0,50,0.00,,,0.00,Wunderground v.1.15,2013-06-14 16:35:00,
2013-06-14 11:40:00,91.0,70.4,29.93,SSW,203,0.0,0.0,51,0.00,,,0.00,Wunderground v.1.15,2013-06-14 16:40:00,
2013-06-14 11:50:00,91.5,71.4,29.93,SSW,203,0.0,0.0,52,0.00,,,0.00,Wunderground v.1.15,2013-06-14 16:50:00,
2013-06-14 11:55:00,91.4,69.6,29.93,SSW,194,0.0,0.0,49,0.00,,,0.00,Wunderground v.1.15,2013-06-14 16:55:00,
2013-06-14 12:00:00,91.1,69.9,29.93,South,186,0.0,0.0,50,0.00,,,0.00,Wunderground v.1.15,2013-06-14 17:00:00,
2013-06-14 12:10:00,91.5,69.6,29.93,South,186,0.0,0.0,49,0.00,,,0.00,Wunderground v.1.15,2013-06-14 17:10:00,
2013-06-14 12:15:00,91.7,70.4,29.92,SW,232,1.0,1.0,50,0.00,,,0.00,Wunderground v.1.15,2013-06-14 17:15:00,
2013-06-14 12:20:00,91.9,71.2,29.92,WSW,244,1.0,2.0,51,0.00,,,0.00,Wunderground v.1.15,2013-06-14 17:20:00,
2013-06-14 12:30:00,91.5,70.8,29.92,WSW,240,0.0,0.0,51,0.00,,,0.00,Wunderground v.1.15,2013-06-14 17:30:00,
2013-06-14 12:35:00,92.4,71.6,29.92,WSW,240,0.0,0.0,51,0.00,,,0.00,Wunderground v.1.15,2013-06-14 17:35:00,
2013-06-14 12:40:00,92.3,71.0,29.91,SW,234,1.0,1.0,50,0.00,,,0.00,Wunderground v.1.15,2013-06-14 17:40:00,
2013-06-14 12:45:00,91.7,70.4,29.91,West,261,3.0,8.0,50,0.00,,,0.00,Wunderground v.1.15,2013-06-14 17:45:00,
2013-06-14 12:50:00,91.3,70.1,29.91,WSW,246,3.0,3.0,50,0.00,,,0.00,Wunderground v.1.15,2013-06-14 17:50:00,
2013-06-14 13:00:00,91.5,69.0,29.91,North,355,1.0,1.0,48,0.00,,,0.00,Wunderground v.1.15,2013-06-14 18:00:00,
2013-06-14 13:10:00,91.9,70.6,29.91,West,270,0.0,0.0,50,0.00,,,0.00,Wunderground v.1.15,2013-06-14 18:10:00,
2013-06-14 13:15:00,92.3,69.8,29.91,WNW,285,0.0,0.0,48,0.00,,,0.00,Wunderground v.1.15,2013-06-14 18:15:00,
2013-06-14 13:20:00,92.8,70.2,29.91,WNW,284,0.0,0.0,48,0.00,,,0.00,Wunderground v.1.15,2013-06-14 18:20:00,
2013-06-14 13:25:00,92.5,71.2,29.91,WSW,254,0.0,0.0,50,0.00,,,0.00,Wunderground v.1.15,2013-06-14 18:25:00,
2013-06-14 13:30:00,92.3,71.6,29.91,SW,224,0.0,0.0,51,0.00,,,0.00,Wunderground v.1.15,2013-06-14 18:30:00,
2013-06-14 13:40:00,93.2,71.2,29.90,NNE,22,0.0,0.0,49,0.00,,,0.00,Wunderground v.1.15,2013-06-14 18:40:00,
2013-06-14 13:45:00,93.1,71.1,29.91,NNE,24,0.0,0.0,49,0.00,,,0.00,Wunderground v.1.15,2013-06-14 18:45:00,
2013-06-14 13:50:00,92.5,71.7,29.91,South,184,0.0,0.0,51,0.00,,,0.00,Wunderground v.1.15,2013-06-14 18:50:00,
2013-06-14 13:55:00,92.4,70.5,29.90,South,184,0.0,0.0,49,0.00,,,0.00,Wunderground v.1.15,2013-06-14 18:55:00,
2013-06-14 14:00:00,93.0,71.0,29.90,WSW,240,0.0,0.0,49,0.00,,,0.00,Wunderground v.1.15,2013-06-14 19:00:00,
2013-06-14 14:10:00,94.4,71.7,29.90,West,268,0.0,0.0,48,0.00,,,0.00,Wunderground v.1.15,2013-06-14 19:10:00,
2013-06-14 14:15:00,94.4,74.1,29.90,West,262,0.0,0.0,52,0.00,,,0.00,Wunderground v.1.15,2013-06-14 19:15:00,
2013-06-14 14:25:00,93.4,71.4,29.90,SSE,156,3.0,3.0,49,0.00,,,0.00,Wunderground v.1.15,2013-06-14 19:25:00,
2013-06-14 14:30:00,93.0,70.4,29.90,SSE,158,3.0,3.0,48,0.00,,,0.00,Wunderground v.1.15,2013-06-14 19:30:00,
2013-06-14 14:35:00,92.6,70.6,29.90,South,169,2.0,4.0,49,0.00,,,0.00,Wunderground v.1.15,2013-06-14 19:35:00,
2013-06-14 14:40:00,92.5,71.2,29.90,South,169,1.0,4.0,50,0.00,,,0.00,Wunderground v.1.15,2013-06-14 19:40:00,
2013-06-14 14:45:00,92.3,71.0,29.90,SW,226,3.0,4.0,50,0.00,,,0.00,Wunderground v.1.15,2013-06-14 19:45:00,
2013-06-14 14:55:00,92.5,71.7,29.89,SSW,195,2.0,4.0,51,0.00,,,0.00,Wunderground v.1.15,2013-06-14 19:55:00,
2013-06-14 15:00:00,92.4,71.1,29.89,SW,215,2.0,2.0,50,0.00,,,0.00,Wunderground v.1.15,2013-06-14 20:00:00,
2013-06-14 15:10:00,93.6,72.7,29.89,SSW,200,2.0,2.0,51,0.00,,,0.00,Wunderground v.1.15,2013-06-14 20:10:00,
2013-06-14 15:15:00,94.3,72.8,29.89,SSW,203,1.0,2.0,50,0.00,,,0.00,Wunderground v.1.15,2013-06-14 20:15:00,
2013-06-14 15:20:00,94.0,71.3,29.89,SSW,211,0.0,0.0,48,0.00,,,0.00,Wunderground v.1.15,2013-06-14 20:20:00,
2013-06-14 15:25:00,93.8,72.9,29.89,SSW,209,0.0,4.0,51,0.00,,,0.00,Wunderground v.1.15,2013-06-14 20:25:00,
2013-06-14 15:35:00,94.2,71.5,29.89,WSW,238,2.0,7.0,48,0.00,,,0.00,Wunderground v.1.15,2013-06-14 20:35:00,
2013-06-14 15:40:00,94.1,72.0,29.88,SW,223,2.0,2.0,49,0.00,,,0.00,Wunderground v.1.15,2013-06-14 20:40:00,
2013-06-14 15:45:00,94.4,71.1,29.88,SW,224,1.0,2.0,47,0.00,,,0.00,Wunderground v.1.15,2013-06-14 20:45:00,
2013-06-14 15:50:00,94.9,70.9,29.88,SSW,195,0.0,0.0,46,0.00,,,0.00,Wunderground v.1.15,2013-06-14 20:50:00,
2013-06-14 16:00:00,95.8,73.0,29.88,South,185,0.0,0.0,48,0.00,,,0.00,Wunderground v.1.15,2013-06-14 21:00:00,
2013-06-14 16:10:00,95.2,71.8,29.88,South,189,0.0,0.0,47,0.00,,,0.00,Wunderground v.1.15,2013-06-14 21:10:00,
2013-06-14 16:15:00,94.7,70.1,29.88,South,189,0.0,0.0,45,0.00,,,0.00,Wunderground v.1.15,2013-06-14 21:15:00,
2013-06-14 16:20:00,94.3,71.6,29.88,South,189,0.0,0.0,48,0.00,,,0.00,Wunderground v.1.15,2013-06-14 21:20:00,
2013-06-14 16:25:00,93.8,69.9,29.87,SSW,202,0.0,0.0,46,0.00,,,0.00,Wunderground v.1.15,2013-06-14 21:25:00,
2013-06-14 16:30:00,93.3,72.5,29.87,SSW,202,0.0,0.0,51,0.00,,,0.00,Wunderground v.1.15,2013-06-14 21:30:00,
2013-06-14 16:40:00,93.3,70.7,29.87,South,188,0.0,0.0,48,0.00,,,0.00,Wunderground v.1.15,2013-06-14 21:40:00,
2013-06-14 16:45:00,93.5,72.1,29.87,South,190,0.0,0.0,50,0.00,,,0.00,Wunderground v.1.15,2013-06-14 21:45:00,
2013-06-14 16:50:00,93.8,71.7,29.87,South,190,0.0,0.0,49,0.00,,,0.00,Wunderground v.1.15,2013-06-14 21:50:00,
2013-06-14 16:55:00,94.6,71.2,29.86,South,190,0.0,4.0,47,0.00,,,0.00,Wunderground v.1.15,2013-06-14 21:55:00,
2013-06-14 17:00:00,94.9,73.4,29.85,SSW,210,1.0,1.0,50,0.00,,,0.00,Wunderground v.1.15,2013-06-14 22:00:00,
2013-06-14 17:10:00,94.8,71.4,29.85,SSW,210,0.0,0.0,47,0.00,,,0.00,Wunderground v.1.15,2013-06-14 22:10:00,
2013-06-14 17:20:00,94.9,70.9,29.85,SSW,210,0.0,0.0,46,0.00,,,0.00,Wunderground v.1.15,2013-06-14 22:20:00,
2013-06-14 17:25:00,95.5,72.7,29.84,SSE,160,0.0,0.0,48,0.00,,,0.00,Wunderground v.1.15,2013-06-14 22:25:00,
2013-06-14 17:30:00,96.0,73.1,29.84,SE,144,0.0,0.0,48,0.00,,,0.00,Wunderground v.1.15,2013-06-14 22:30:00,
2013-06-14 17:35:00,96.8,72.6,29.84,ESE,116,1.0,5.0,46,0.00,,,0.00,Wunderground v.1.15,2013-06-14 22:35:00,
2013-06-14 17:40:00,96.9,71.4,29.84,ENE,68,2.0,6.0,44,0.00,,,0.00,Wunderground v.1.15,2013-06-14 22:40:00,
2013-06-14 17:50:00,96.3,70.8,29.84,ENE,71,2.0,2.0,44,0.00,,,0.00,Wunderground v.1.15,2013-06-14 22:50:00,
2013-06-14 17:55:00,96.1,71.3,29.84,ENE,66,1.0,2.0,45,0.00,,,0.00,Wunderground v.1.15,2013-06-14 22:55:00,
2013-06-14 18:00:00,95.9,72.4,29.84,ENE,66,1.0,1.0,47,0.00,,,0.00,Wunderground v.1.15,2013-06-14 23:00:00,
2013-06-14 18:10:00,95.3,71.2,29.83,ENE,66,0.0,0.0,46,0.00,,,0.00,Wunderground v.1.15,2013-06-14 23:10:00,
2013-06-14 18:15:00,95.0,71.0,29.83,ENE,66,0.0,0.0,46,0.00,,,0.00,Wunderground v.1.15,2013-06-14 23:15:00,
2013-06-14 18:20:00,95.0,71.0,29.83,ENE,66,0.0,0.0,46,0.00,,,0.00,Wunderground v.1.15,2013-06-14 23:20:00,
2013-06-14 18:30:00,95.0,71.0,29.83,ENE,66,0.0,0.0,46,0.00,,,0.00,Wunderground v.1.15,2013-06-14 23:30:00,
2013-06-14 18:35:00,94.9,70.2,29.83,ENE,66,0.0,0.0,45,0.00,,,0.00,Wunderground v.1.15,2013-06-14 23:35:00,
2013-06-14 18:40:00,94.6,70.6,29.83,ENE,66,0.0,0.0,46,0.00,,,0.00,Wunderground v.1.15,2013-06-14 23:40:00,
2013-06-14 18:45:00,94.4,71.1,29.83,ENE,66,0.0,0.0,47,0.00,,,0.00,Wunderground v.1.15,2013-06-14 23:45:00,
2013-06-14 18:50:00,94.2,71.5,29.83,ENE,66,0.0,0.0,48,0.00,,,0.00,Wunderground v.1.15,2013-06-14 23:50:00,
2013-06-14 19:00:00,93.9,71.8,29.83,ENE,66,0.0,0.0,49,0.00,,,0.00,Wunderground v.1.15,2013-06-15 00:00:00,
2013-06-14 19:10:00,93.9,71.2,29.83,ENE,66,0.0,0.0,48,0.00,,,0.00,Wunderground v.1.15,2013-06-15 00:10:00,
2013-06-14 19:15:00,93.8,71.1,29.83,ENE,67,0.0,0.0,48,0.00,,,0.00,Wunderground v.1.15,2013-06-15 00:15:00,
2013-06-14 19:20:00,93.7,71.0,29.83,ENE,67,0.0,0.0,48,0.00,,,0.00,Wunderground v.1.15,2013-06-15 00:20:00,
2013-06-14 19:25:00,93.5,74.9,29.85,ESE,105,1.0,6.0,55,0.00,,,0.01,Wunderground v.1.15,2013-06-15 00:25:00,
2013-06-14 19:30:00,92.0,76.6,29.85,SE,139,2.0,2.0,61,0.62,,,0.08,Wunderground v.1.15,2013-06-15 00:30:00,
2013-06-14 19:35:00,89.5,74.3,29.85,SW,222,4.0,7.0,61,0.13,,,0.09,Wunderground v.1.15,2013-06-15 00:35:00,
2013-06-14 19:45:00,84.0,73.2,29.86,West,278,5.0,5.0,70,0.05,,,0.09,Wunderground v.1.15,2013-06-15 00:45:00,
2013-06-14 19:50:00,82.6,73.1,29.87,WNW,290,4.0,4.0,73,0.04,,,0.09,Wunderground v.1.15,2013-06-15 00:50:00,
2013-06-14 19:55:00,81.9,73.6,29.87,WNW,290,1.0,4.0,76,0.13,,,0.10,Wunderground v.1.15,2013-06-15 00:55:00,
2013-06-14 20:00:00,81.3,74.5,29.87,WNW,290,0.0,0.0,80,0.65,,,0.22,Wunderground v.1.15,2013-06-15 01:00:00,
2013-06-14 20:10:00,80.0,74.4,29.85,WNW,290,0.0,0.0,83,0.16,,,0.27,Wunderground v.1.15,2013-06-15 01:10:00,
2013-06-14 20:15:00,79.6,74.3,29.85,WNW,290,0.0,0.0,84,0.08,,,0.27,Wunderground v.1.15,2013-06-15 01:15:00,
2013-06-14 20:20:00,79.4,74.5,29.85,WNW,290,0.0,0.0,85,0.05,,,0.27,Wunderground v.1.15,2013-06-15 01:20:00,
2013-06-14 20:30:00,79.2,75.0,29.85,WNW,290,0.0,0.0,87,0.00,,,0.27,Wunderground v.1.15,2013-06-15 01:30:00,
2013-06-14 20:35:00,79.3,75.4,29.85,WNW,290,0.0,0.0,88,0.00,,,0.27,Wunderground v.1.15,2013-06-15 01:35:00,
2013-06-14 20:40:00,79.4,75.9,29.85,WNW,290,0.0,0.0,89,0.00,,,0.27,Wunderground v.1.15,2013-06-15 01:40:00,
2013-06-14 20:45:00,79.3,75.8,29.85,WNW,290,0.0,0.0,89,0.00,,,0.27,Wunderground v.1.15,2013-06-15 01:45:00,
2013-06-14 20:55:00,79.1,75.6,29.85,WNW,290,0.0,0.0,89,0.00,,,0.27,Wunderground v.1.15,2013-06-15 01:55:00,
2013-06-14 21:00:00,79.0,75.5,29.85,WNW,290,0.0,0.0,89,0.00,,,0.27,Wunderground v.1.15,2013-06-15 02:00:00,
2013-06-14 21:10:00,78.8,75.3,29.85,WNW,290,0.0,0.0,89,0.00,,,0.27,Wunderground v.1.15,2013-06-15 02:10:00,
2013-06-14 21:15:00,78.7,75.5,29.85,WNW,290,0.0,0.0,90,0.00,,,0.27,Wunderground v.1.15,2013-06-15 02:15:00,
2013-06-14 21:20:00,78.7,75.5,29.85,WNW,290,0.0,0.0,90,0.00,,,0.27,Wunderground v.1.15,2013-06-15 02:20:00,
2013-06-14 21:25:00,78.6,75.4,29.85,WNW,290,0.0,0.0,90,0.00,,,0.27,Wunderground v.1.15,2013-06-15 02:25:00,
2013-06-14 21:30:00,78.6,75.4,29.86,WNW,290,0.0,0.0,90,0.00,,,0.27,Wunderground v.1.15,2013-06-15 02:30:00,
2013-06-14 21:40:00,78.6,75.8,29.85,WNW,290,0.0,0.0,91,0.00,,,0.27,Wunderground v.1.15,2013-06-15 02:40:00,
2013-06-14 21:45:00,78.8,75.9,29.86,WNW,290,0.0,0.0,91,0.00,,,0.27,Wunderground v.1.15,2013-06-15 02:45:00,
2013-06-14 21:50:00,78.9,76.0,29.86,WNW,290,0.0,0.0,91,0.00,,,0.27,Wunderground v.1.15,2013-06-15 02:50:00,
2013-06-14 21:55:00,79.0,76.1,29.86,WNW,290,0.0,0.0,91,0.00,,,0.27,Wunderground v.1.15,2013-06-15 02:55:00,
2013-06-14 22:00:00,78.9,76.0,29.87,WNW,290,0.0,0.0,91,0.00,,,0.27,Wunderground v.1.15,2013-06-15 03:00:00,
2013-06-14 22:10:00,78.6,75.8,29.87,WNW,290,0.0,0.0,91,0.00,,,0.27,Wunderground v.1.15,2013-06-15 03:10:00,
2013-06-14 22:20:00,78.2,75.4,29.88,WNW,290,0.0,0.0,91,0.00,,,0.27,Wunderground v.1.15,2013-06-15 03:20:00,
2013-06-14 22:25:00,78.1,75.3,29.88,WNW,290,0.0,0.0,91,0.00,,,0.27,Wunderground v.1.15,2013-06-15 03:25:00,
2013-06-14 22:30:00,78.0,75.2,29.88,WNW,290,0.0,0.0,91,0.00,,,0.27,Wunderground v.1.15,2013-06-15 03:30:00,
2013-06-14 22:35:00,78.0,75.2,29.88,WNW,290,0.0,0.0,91,0.00,,,0.27,Wunderground v.1.15,2013-06-15 03:35:00,
2013-06-14 22:40:00,78.0,75.2,29.88,WNW,290,0.0,0.0,91,0.00,,,0.27,Wunderground v.1.15,2013-06-15 03:40:00,
2013-06-14 22:50:00,77.9,75.4,29.89,WNW,290,0.0,0.0,92,0.00,,,0.27,Wunderground v.1.15,2013-06-15 03:50:00,
2013-06-14 22:55:00,77.9,75.4,29.89,WNW,290,0.0,0.0,92,0.00,,,0.27,Wunderground v.1.15,2013-06-15 03:55:00,
2013-06-14 23:00:00,77.8,75.3,29.89,WNW,290,0.0,0.0,92,0.00,,,0.27,Wunderground v.1.15,2013-06-15 04:00:00,
2013-06-14 23:05:00,77.9,75.4,29.89,WNW,290,0.0,0.0,92,0.00,,,0.27,Wunderground v.1.15,2013-06-15 04:05:00,
2013-06-14 23:10:00,78.0,75.5,29.89,WNW,290,0.0,0.0,92,0.00,,,0.27,Wunderground v.1.15,2013-06-15 04:10:00,
2013-06-14 23:15:00,78.1,75.6,29.89,WNW,290,0.0,0.0,92,0.00,,,0.27,Wunderground v.1.15,2013-06-15 04:15:00,
2013-06-14 23:20:00,78.1,75.6,29.89,WNW,290,0.0,0.0,92,0.00,,,0.27,Wunderground v.1.15,2013-06-15 04:20:00,
2013-06-14 23:25:00,78.1,75.6,29.89,WNW,290,0.0,0.0,92,0.00,,,0.27,Wunderground v.1.15,2013-06-15 04:25:00,
2013-06-14 23:30:00,78.1,75.9,29.89,WNW,290,0.0,0.0,93,0.00,,,0.27,Wunderground v.1.15,2013-06-15 04:30:00,
2013-06-14 23:35:00,78.0,75.5,29.89,WNW,290,0.0,0.0,92,0.00,,,0.27,Wunderground v.1.15,2013-06-15 04:35:00,
2013-06-14 23:40:00,78.0,75.5,29.90,WNW,290,0.0,0.0,92,0.00,,,0.27,Wunderground v.1.15,2013-06-15 04:40:00,
2013-06-14 23:45:00,77.9,75.4,29.90,WNW,290,0.0,0.0,92,0.00,,,0.27,Wunderground v.1.15,2013-06-15 04:45:00,
2013-06-14 23:50:00,77.8,75.3,29.89,WNW,290,0.0,0.0,92,0.00,,,0.27,Wunderground v.1.15,2013-06-15 04:50:00,